Main page
METAR-TAF:

METAR-TAF

Airports :

Vlissingen, Netherlands

latitude: 51-27N, longitude: 3-36E, elevation: 10 m

Current weather observation

The report was made 18 minutes ago, at 20:25 UTC
Wind 5 kt from the Northwest, varying between West and North/Northwest
Temperature 4°C
Humidity 75%
Pressure 1021 hPa
Visibility 10 km or more

METAR: EHFS 112025Z AUTO 31005KT 270V340 9999 FEW030/// 04/M00 Q1021

Time: 22:43 (20:43 UTC)


TAF: missing

Weather observations and forecasts of more than 4000 airports (METAR and TAF reports).

The available stations are represented by yellow and red dots on the map.

Hover mouse over dot to see the name of the station.

Then click to see weather observations and forecasts.

To change the map : click on the green buttons with a black cross to zoom in, on the green button with a dash to zoom out, or on the green arrows for adjacent maps.


METAR-TAF: